STARLINK-32258, 60939

Orbit data source: Space-Track

STARLINK-32258, 60939 is a payload satellite owned by SpaceX/Seattle (US) in LEO that was launched on Sat, 31 Aug 2024 UTC via an FALCON 9 launch vehicle from the Air Force Western Test Range (AFWTR). Payload-class satellites include a variety of spacecraft equipped with specific instruments for various scientific and technological missions. These include communications satellites like Starlink; space stations such as the ISS; scientific satellites like the Hubble; Earth observation satellites from companies like Planet Labs, Umbra, and HawkEye 360; GPS; miniature CubeSats for education and research; and military/defense satellites.

Loading next visibility...
Identifier
60939, 2024-155R
Orbit
LEO
Country
Flag of USUS
Related business
Manufacturer
SpaceX/Seattle
Mission
Operational Commercial Communications
Bus & Motor
STARLINK V2M, Unknown motor
Mass
730 kg wet, ~700 kg dry
Launch date (UTC)
2024-08-31 (2 years ago)
Launch vehicle
FALCON 9
Launch site
Air Force Western Test Range (AFWTR)
Object type
Payload
Rocket body
Debris
Shape & HBR
Box + 2 Pan, 17.7 m
Radar Cross Section
33.884 m², Large (>1 m²)

Expand to show TLE details & history
Last TLE update: 1 day ago

TLE from 1 day ago
0 STARLINK-32258
1 60939U 24155R   26170.86440468  .00002646  00000-0  89434-4 0  9990
2 60939  53.1609  14.4144 0001311  92.9038 267.2114 15.34398253101949
Epoch: 2026-06-19T20:44Z
TLE epoch observation values (Epoch: 2026-06-19T20:44:44.564Z)
Latitude
-0.00007°
Longitude
155.1414°
Altitude
463.654 km
Speed
7.636 km/s
True Right ascension
00h 57m 39s
True Declination
0° 00' 00"
Sunlit
Object was in daylight at epoch
Visualization orbit readout
Latitude
Unknown
Longitude
Unknown
Altitude
Unknown
Speed
Unknown
Apparent Right ascension
Unknown
Apparent Declination
Unknown
Sunlit
N/A
Visualization observer readout
Local Sidereal Time
07:13:43
Azimuth
Unknown
Elevation
Unknown
Doppler factor
Unknown
Orbital elements
Apogee altitude
463.862 km
Perigee altitude
462.068 km
Semi-major axis
6,841.102 km
Eccentricity
0.00013
Inclination
53.1609°
RAAN
14.4144°
Arg. of periapsis
92.9038°
True anomaly
267.19639°
Mean anomaly
267.2114°
Eccentric anomaly
267.2039°
Mean motion
3.83578 °/min
Orbital period
93.85 mins
BSTAR
0.000089434
Loading maneuver chart data...
Computing Atmospheric mass density...
Loading historical data...
Loading historical data...
Loading historical data...
Loading historical data...
Loading historical data...
Loading historical data...
Loading historical data...

Documentation

Showing up to 5 results
|